User: anonymous   Login
Location: Charbonni�res
(45.9952°N, 2.9982°E)
Time: 04:44:55
(UTC+00:00)
Language:

FENGYUN 1C DEB - Orbit

View from above orbital plane
View from above orbital plane
View from above satellite
View from above satellite

Ground track
Ground track

The orbit data is extracted from the following two-line orbital elements,

1 36263U 99025DWQ 21165.13435919  .00000641  00000-0  28983-3 0  9999
2 36263  99.0194 315.3255 0046985   9.6181 350.5886 14.25112774644671
Epoch (UTC): 14 June 2021 03:13:28
Eccentricity: 0.0046985
inclination: 99.0194°
perigee height: 774 km
apogee height: 842 km
right ascension of ascending node: 315.3255°
argument of perigee: 9.6181°
revolutions per day: 14.25112774
mean anomaly at epoch: 350.5886°
orbit number at epoch: 64467

The dashed part of the orbit path shows where the satellite is in the earth's shadow,  

DLR